| time (UTC) | temp C | wind direction | speed KPH | gust KPH | rain 1hr cm | rain 24hr cm | rain mn cm | humidity % | barometer mb |
| 20260506081232 | 12 | 236 | 3.2 | 6.4 | 0.00 | 0.00 | 0.00 | 80 | 1012.9 |
| 20260506080731 | 12 | 185 | 3.2 | 4.8 | 0.00 | 0.00 | 0.00 | 80 | 1012.8 |
| 20260506080227 | 12 | 210 | 3.2 | 6.4 | 0.00 | 0.00 | 0.00 | 80 | 1012.8 |
| 20260506073211 | 12 | 173 | 3.2 | 3.2 | 0.00 | 0.00 | 0.00 | 79 | 1012.5 |
| 20260506072707 | 12 | 225 | 3.2 | 3.2 | 0.00 | 0.00 | 0.00 | 79 | 1012.7 |
| 20260506072205 | 12 | 186 | 1.6 | 3.2 | 0.00 | 0.00 | 0.00 | 79 | 1012.3 |
| 20260506071702 | 12 | 184 | 1.6 | 4.8 | 0.00 | 0.00 | 0.00 | 78 | 1012.3 |
| 20260506071200 | 12 | 156 | 0.0 | 3.2 | 0.00 | 0.00 | 0.00 | 78 | 1012.4 |
| 20260506070657 | 12 | 196 | 1.6 | 3.2 | 0.00 | 0.00 | 0.00 | 78 | 1012.2 |
| 20260506070154 | 12 | 199 | 1.6 | 4.8 | 0.00 | 0.00 | 0.00 | 78 | 1012.1 |
| 20260506062131 | 12 | 208 | 1.6 | 4.8 | 0.00 | 0.00 | 0.00 | 77 | 1012.0 |
| 20260506061627 | 13 | 194 | 3.2 | 4.8 | 0.00 | 0.00 | 0.00 | 76 | 1012.2 |
| 20260506061125 | 13 | 181 | 1.6 | 3.2 | 0.00 | 0.00 | 0.00 | 75 | 1012.1 |
| 20260506060623 | 13 | 166 | 1.6 | 3.2 | 0.00 | 0.00 | 0.00 | 74 | 1012.1 |
| 20260506060120 | 13 | 171 | 1.6 | 4.8 | 0.00 | 0.00 | 0.00 | 74 | 1012.1 |
| 20260506051052 | 15 | 171 | 3.2 | 9.7 | 0.00 | 0.00 | 0.00 | 69 | 1012.2 |
| 20260506050549 | 15 | 201 | 3.2 | 3.2 | 0.00 | 0.00 | 0.00 | 69 | 1012.2 |
| 20260506045040 | 15 | 196 | 1.6 | 11.3 | 0.00 | 0.00 | 0.00 | 70 | 1012.1 |
| 20260506044538 | 15 | 185 | 3.2 | 12.9 | 0.00 | 0.00 | 0.00 | 70 | 1012.4 |
| 20260506044034 | 15 | 215 | 3.2 | 3.2 | 0.00 | 0.00 | 0.00 | 70 | 1012.4 |
| 20260506043531 | 15 | 180 | 1.6 | 3.2 | 0.00 | 0.00 | 0.00 | 70 | 1012.1 |
| 20260506043030 | 15 | 176 | 0.0 | 3.2 | 0.00 | 0.00 | 0.00 | 71 | 1012.1 |
| 20260506042529 | 15 | 172 | 1.6 | 4.8 | 0.00 | 0.00 | 0.00 | 70 | 1012.3 |
| 20260506042026 | 15 | 210 | 1.6 | 3.2 | 0.00 | 0.00 | 0.00 | 70 | 1012.3 |
| 20260506041525 | 15 | 221 | 4.8 | 4.8 | 0.00 | 0.00 | 0.00 | 70 | 1012.1 |
| 20260506041021 | 15 | 226 | 3.2 | 4.8 | 0.00 | 0.00 | 0.00 | 70 | 1012.3 |
| 20260506040519 | 15 | 177 | 1.6 | 3.2 | 0.00 | 0.00 | 0.00 | 70 | 1012.3 |
| 20260506040014 | 15 | 164 | 4.8 | 6.4 | 0.00 | 0.00 | 0.00 | 69 | 1012.0 |
| 20260506035512 | 15 | 157 | 1.6 | 3.2 | 0.00 | 0.00 | 0.00 | 70 | 1012.2 |
| 20260506035008 | 15 | 182 | 4.8 | 4.8 | 0.00 | 0.00 | 0.00 | 69 | 1012.1 |
| 20260506034506 | 15 | 193 | 3.2 | 6.4 | 0.00 | 0.00 | 0.00 | 69 | 1012.1 |
| 20260506034003 | 15 | 230 | 4.8 | 9.7 | 0.00 | 0.00 | 0.00 | 70 | 1012.0 |
| 20260506033500 | 15 | 140 | 0.0 | 3.2 | 0.00 | 0.00 | 0.00 | 71 | 1011.9 |
| 20260506032956 | 14 | 225 | 4.8 | 12.9 | 0.00 | 0.00 | 0.00 | 72 | 1012.0 |
| 20260506032454 | 14 | 165 | 0.0 | 3.2 | 0.00 | 0.00 | 0.00 | 72 | 1012.2 |
| 20260506031950 | 14 | 198 | 1.6 | 3.2 | 0.00 | 0.00 | 0.00 | 72 | 1012.0 |
| 20260506031448 | 15 | 177 | 1.6 | 1.6 | 0.00 | 0.00 | 0.00 | 72 | 1011.9 |
| 20260506030946 | 15 | 191 | 0.0 | 0.0 | 0.00 | 0.00 | 0.00 | 72 | 1011.8 |
| 20260506030444 | 15 | 174 | 1.6 | 1.6 | 0.00 | 0.00 | 0.00 | 72 | 1011.9 |
| 20260506025940 | 15 | 201 | 1.6 | 3.2 | 0.00 | 0.00 | 0.00 | 72 | 1012.0 |
| 20260506025437 | 15 | 131 | 0.0 | 0.0 | 0.00 | 0.00 | 0.00 | 71 | 1012.1 |
| 20260506024934 | 15 | 205 | 0.0 | 1.6 | 0.00 | 0.00 | 0.00 | 71 | 1012.0 |
| 20260506024431 | 15 | 205 | 0.0 | 0.0 | 0.00 | 0.00 | 0.00 | 70 | 1012.2 |
| 20260506023926 | 15 | 206 | 1.6 | 3.2 | 0.00 | 0.00 | 0.00 | 70 | 1012.2 |
| 20260506023423 | 15 | 199 | 1.6 | 1.6 | 0.00 | 0.00 | 0.00 | 70 | 1012.1 |
| 20260506022920 | 15 | 199 | 0.0 | 0.0 | 0.00 | 0.00 | 0.00 | 70 | 1012.4 |
| 20260506022418 | 15 | 199 | 0.0 | 0.0 | 0.00 | 0.00 | 0.00 | 69 | 1012.1 |
| 20260506021916 | 15 | 199 | 0.0 | 0.0 | 0.00 | 0.00 | 0.00 | 69 | 1011.9 |
| 20260506021413 | 15 | 199 | 0.0 | 0.0 | 0.00 | 0.00 | 0.00 | 69 | 1012.1 |
| 20260506020909 | 15 | 199 | 0.0 | 0.0 | 0.00 | 0.00 | 0.00 | 68 | 1012.3 |
| 20260506020408 | 16 | 199 | 0.0 | 0.0 | 0.00 | 0.00 | 0.00 | 68 | 1012.4 |
| 20260506015904 | 16 | 199 | 0.0 | 0.0 | 0.00 | 0.00 | 0.00 | 67 | 1012.3 |
| 20260506015402 | 16 | 199 | 1.6 | 3.2 | 0.00 | 0.00 | 0.00 | 67 | 1012.3 |
| 20260506014858 | 16 | 207 | 1.6 | 3.2 | 0.00 | 0.00 | 0.00 | 66 | 1012.2 |
| 20260506014355 | 16 | 198 | 3.2 | 3.2 | 0.00 | 0.00 | 0.00 | 65 | 1012.3 |
| 20260506013852 | 16 | 212 | 3.2 | 4.8 | 0.00 | 0.00 | 0.00 | 65 | 1012.4 |
| 20260506013350 | 16 | 182 | 1.6 | 4.8 | 0.00 | 0.00 | 0.00 | 64 | 1012.3 |
| 20260506012845 | 17 | 208 | 1.6 | 3.2 | 0.00 | 0.00 | 0.00 | 64 | 1012.2 |
| 20260506012343 | 17 | 188 | 1.6 | 3.2 | 0.00 | 0.00 | 0.00 | 64 | 1012.2 |
| 20260506011840 | 17 | 182 | 0.0 | 0.0 | 0.00 | 0.00 | 0.00 | 63 | 1011.9 |
| 20260506011336 | 17 | 202 | 1.6 | 3.2 | 0.00 | 0.00 | 0.00 | 63 | 1011.9 |
| 20260506010834 | 17 | 208 | 1.6 | 4.8 | 0.00 | 0.00 | 0.00 | 62 | 1012.1 |
| 20260506010332 | 17 | 213 | 3.2 | 4.8 | 0.00 | 0.00 | 0.00 | 62 | 1012.0 |
| 20260506005829 | 17 | 185 | 1.6 | 3.2 | 0.00 | 0.00 | 0.00 | 61 | 1011.9 |
| 20260506005325 | 17 | 208 | 0.0 | 1.6 | 0.00 | 0.00 | 0.00 | 61 | 1011.8 |
| 20260506004821 | 18 | 197 | 1.6 | 3.2 | 0.00 | 0.00 | 0.00 | 60 | 1012.0 |
| 20260506004319 | 18 | 177 | 1.6 | 3.2 | 0.00 | 0.00 | 0.00 | 60 | 1011.8 |
| 20260506003815 | 18 | 165 | 0.0 | 1.6 | 0.00 | 0.00 | 0.00 | 59 | 1011.8 |
| 20260506003312 | 18 | 162 | 0.0 | 1.6 | 0.00 | 0.00 | 0.00 | 60 | 1011.9 |
| 20260506002808 | 18 | 132 | 0.0 | 1.6 | 0.00 | 0.00 | 0.00 | 59 | 1012.0 |
| 20260506002306 | 18 | 164 | 1.6 | 3.2 | 0.00 | 0.00 | 0.00 | 58 | 1011.5 |
| 20260506001800 | 18 | 167 | 1.6 | 1.6 | 0.00 | 0.00 | 0.00 | 59 | 1011.3 |
| 20260506001258 | 18 | 152 | 0.0 | 3.2 | 0.00 | 0.00 | 0.00 | 58 | 1011.2 |
| 20260506000754 | 18 | 206 | 1.6 | 4.8 | 0.00 | 0.00 | 0.00 | 58 | 1011.1 |
| 20260506000254 | 19 | 158 | 1.6 | 3.2 | 0.00 | 0.00 | 0.00 | 58 | 1010.9 |
| 20260505235749 | 19 | 156 | 1.6 | 1.6 | 0.00 | 0.00 | 0.00 | 57 | 1010.7 |
| 20260505235246 | 20 | 180 | 1.6 | 1.6 | 0.00 | 0.00 | 0.00 | 56 | 1010.7 |
| 20260505234743 | 20 | 204 | 3.2 | 6.4 | 0.00 | 0.00 | 0.00 | 55 | 1010.6 |
| 20260505234241 | 20 | 199 | 1.6 | 1.6 | 0.00 | 0.00 | 0.00 | 55 | 1010.7 |
| 20260505233737 | 20 | 171 | 1.6 | 4.8 | 0.00 | 0.00 | 0.00 | 56 | 1010.6 |
| 20260505233235 | 19 | 203 | 3.2 | 3.2 | 0.00 | 0.00 | 0.00 | 57 | 1010.6 |
| 20260505232732 | 19 | 162 | 0.0 | 3.2 | 0.00 | 0.00 | 0.00 | 57 | 1010.6 |
| 20260505232229 | 18 | 173 | 1.6 | 4.8 | 0.00 | 0.00 | 0.00 | 57 | 1010.5 |
| 20260505231726 | 18 | 196 | 3.2 | 3.2 | 0.00 | 0.00 | 0.00 | 59 | 1010.7 |
| 20260505231225 | 18 | 110 | 0.0 | 4.8 | 0.00 | 0.00 | 0.00 | 59 | 1010.4 |
| 20260505230723 | 17 | 227 | 4.8 | 14.5 | 0.00 | 0.00 | 0.00 | 60 | 1010.3 |
| 20260505230219 | 17 | 165 | 4.8 | 4.8 | 0.00 | 0.00 | 0.00 | 62 | 1010.5 |
| 20260505225716 | 17 | 233 | 6.4 | 17.7 | 0.00 | 0.00 | 0.00 | 62 | 1008.8 |
| 20260505225213 | 17 | 239 | 11.3 | 20.9 | 0.00 | 0.00 | 0.00 | 61 | 1008.7 |
| 20260505224708 | 17 | 245 | 8.0 | 17.7 | 0.00 | 0.00 | 0.00 | 61 | 1008.8 |
| 20260505224206 | 17 | 229 | 11.3 | 17.7 | 0.00 | 0.00 | 0.00 | 61 | 1008.6 |
| 20260505223703 | 17 | 264 | 12.9 | 17.7 | 0.00 | 0.00 | 0.00 | 60 | 1008.5 |
| 20260505223159 | 17 | 225 | 6.4 | 29.0 | 0.00 | 0.00 | 0.00 | 61 | 1008.5 |
| 20260505222655 | 17 | 174 | 11.3 | 17.7 | 0.00 | 0.00 | 0.00 | 61 | 1008.6 |
| 20260505222151 | 17 | 241 | 16.1 | 20.9 | 0.00 | 0.00 | 0.00 | 61 | 1008.4 |
| 20260505221649 | 17 | 223 | 9.7 | 12.9 | 0.00 | 0.00 | 0.00 | 61 | 1008.3 |
| 20260505221145 | 17 | 284 | 12.9 | 24.1 | 0.00 | 0.00 | 0.00 | 61 | 1008.4 |
| 20260505220643 | 17 | 260 | 11.3 | 16.1 | 0.00 | 0.00 | 0.00 | 61 | 1008.3 |
| 20260505220140 | 17 | 205 | 9.7 | 20.9 | 0.00 | 0.00 | 0.00 | 61 | 1008.3 |
| 20260505215638 | 17 | 215 | 12.9 | 24.1 | 0.00 | 0.00 | 0.00 | 61 | 1008.1 |
| 20260505215136 | 17 | 284 | 9.7 | 16.1 | 0.00 | 0.00 | 0.00 | 61 | 1008.2 |
| 20260505214634 | 17 | 229 | 9.7 | 22.5 | 0.00 | 0.00 | 0.00 | 61 | 1008.2 |
| 20260505214130 | 17 | 253 | 11.3 | 16.1 | 0.00 | 0.00 | 0.00 | 60 | 1008.4 |
| 20260505213628 | 17 | 242 | 9.7 | 20.9 | 0.00 | 0.00 | 0.00 | 61 | 1008.2 |
| 20260505213124 | 17 | 210 | 11.3 | 17.7 | 0.00 | 0.00 | 0.00 | 61 | 1008.2 |
| 20260505212620 | 17 | 216 | 9.7 | 29.0 | 0.00 | 0.00 | 0.00 | 62 | 1008.2 |
| 20260505212118 | 17 | 182 | 12.9 | 29.0 | 0.00 | 0.00 | 0.00 | 62 | 1008.3 |
| 20260505211615 | 17 | 87 | 14.5 | 29.0 | 0.00 | 0.00 | 0.00 | 61 | 1008.4 |
| 20260505211112 | 17 | 143 | 9.7 | 22.5 | 0.00 | 0.00 | 0.00 | 62 | 1008.3 |
| 20260505210609 | 17 | 127 | 4.8 | 17.7 | 0.00 | 0.00 | 0.00 | 61 | 1008.3 |
| 20260505210106 | 17 | 205 | 11.3 | 20.9 | 0.00 | 0.00 | 0.00 | 61 | 1008.1 |
| 20260505205603 | 18 | 194 | 14.5 | 20.9 | 0.00 | 0.00 | 0.00 | 59 | 1008.0 |
| 20260505205101 | 18 | 234 | 11.3 | 27.4 | 0.00 | 0.00 | 0.00 | 58 | 1008.2 |
| 20260505204558 | 19 | 136 | 9.7 | 20.9 | 0.00 | 0.00 | 0.00 | 57 | 1008.0 |
| 20260505204055 | 19 | 229 | 9.7 | 17.7 | 0.00 | 0.00 | 0.00 | 57 | 1008.2 |
| 20260505203551 | 20 | 204 | 8.0 | 20.9 | 0.00 | 0.00 | 0.00 | 57 | 1008.2 |
| 20260505203049 | 20 | 241 | 8.0 | 11.3 | 0.00 | 0.00 | 0.00 | 57 | 1008.3 |
| 20260505202545 | 20 | 226 | 6.4 | 22.5 | 0.00 | 0.00 | 0.00 | 57 | 1008.2 |
| 20260505202041 | 20 | 253 | 9.7 | 20.9 | 0.00 | 0.00 | 0.00 | 56 | 1008.2 |
| 20260505201538 | 19 | 258 | 12.9 | 17.7 | 0.00 | 0.00 | 0.00 | 56 | 1008.2 |
| 20260505201036 | 19 | 265 | 6.4 | 24.1 | 0.00 | 0.00 | 0.00 | 58 | 1008.0 |
| 20260505200533 | 20 | 228 | 4.8 | 17.7 | 0.00 | 0.00 | 0.00 | 57 | 1008.3 |
| 20260505200030 | 20 | 223 | 4.8 | 24.1 | 0.00 | 0.00 | 0.00 | 55 | 1008.4 |
| 20260505195526 | 20 | 235 | 14.5 | 20.9 | 0.00 | 0.00 | 0.00 | 56 | 1008.4 |
| 20260505195024 | 20 | 177 | 14.5 | 20.9 | 0.00 | 0.00 | 0.00 | 55 | 1008.5 |
| 20260505194521 | 20 | 231 | 9.7 | 22.5 | 0.00 | 0.00 | 0.00 | 55 | 1008.6 |
| 20260505194016 | 20 | 195 | 6.4 | 20.9 | 0.00 | 0.00 | 0.00 | 56 | 1008.8 |
| 20260505193513 | 20 | 241 | 11.3 | 25.7 | 0.00 | 0.00 | 0.00 | 56 | 1008.9 |
| 20260505193010 | 20 | 253 | 9.7 | 24.1 | 0.00 | 0.00 | 0.00 | 57 | 1008.8 |
| 20260505192509 | 19 | 240 | 16.1 | 24.1 | 0.00 | 0.00 | 0.00 | 57 | 1009.0 |
| 20260505192006 | 19 | 235 | 9.7 | 27.4 | 0.00 | 0.00 | 0.00 | 58 | 1009.0 |
| 20260505191504 | 20 | 236 | 8.0 | 16.1 | 0.00 | 0.00 | 0.00 | 57 | 1009.1 |
| 20260505191002 | 20 | 233 | 6.4 | 14.5 | 0.00 | 0.00 | 0.00 | 56 | 1009.3 |
| 20260505190456 | 19 | 248 | 9.7 | 12.9 | 0.00 | 0.00 | 0.00 | 57 | 1009.4 |
| 20260505185952 | 19 | 238 | 8.0 | 12.9 | 0.00 | 0.00 | 0.00 | 57 | 1009.6 |
| 20260505185450 | 19 | 231 | 11.3 | 22.5 | 0.00 | 0.00 | 0.00 | 57 | 1009.6 |
| 20260505184946 | 19 | 250 | 9.7 | 22.5 | 0.00 | 0.00 | 0.00 | 56 | 1009.7 |
| 20260505184443 | 20 | 242 | 11.3 | 20.9 | 0.00 | 0.00 | 0.00 | 56 | 1009.8 |
| 20260505183939 | 20 | 119 | 3.2 | 24.1 | 0.00 | 0.00 | 0.00 | 56 | 1009.7 |
| 20260505183436 | 20 | 218 | 9.7 | 17.7 | 0.00 | 0.00 | 0.00 | 54 | 1009.8 |
| 20260505182933 | 20 | 229 | 4.8 | 17.7 | 0.00 | 0.00 | 0.00 | 54 | 1009.9 |
| 20260505182430 | 20 | 227 | 14.5 | 22.5 | 0.00 | 0.00 | 0.00 | 53 | 1009.9 |
| 20260505181926 | 21 | 188 | 8.0 | 14.5 | 0.00 | 0.00 | 0.00 | 53 | 1009.7 |
| 20260505181424 | 21 | 214 | 9.7 | 16.1 | 0.00 | 0.00 | 0.00 | 54 | 1009.8 |
| 20260505180920 | 20 | 208 | 4.8 | 11.3 | 0.00 | 0.00 | 0.00 | 54 | 1009.8 |
| 20260505180417 | 20 | 178 | 6.4 | 12.9 | 0.00 | 0.00 | 0.00 | 55 | 1009.9 |
| 20260505175913 | 20 | 225 | 9.7 | 16.1 | 0.00 | 0.00 | 0.00 | 54 | 1009.9 |
| 20260505175409 | 20 | 216 | 6.4 | 14.5 | 0.00 | 0.00 | 0.00 | 54 | 1010.0 |
| 20260505174906 | 20 | 239 | 9.7 | 16.1 | 0.00 | 0.00 | 0.00 | 54 | 1009.8 |
| 20260505174404 | 21 | 247 | 12.9 | 16.1 | 0.00 | 0.00 | 0.00 | 53 | 1010.0 |
| 20260505173900 | 21 | 210 | 6.4 | 11.3 | 0.00 | 0.00 | 0.00 | 51 | 1010.2 |
| 20260505173356 | 21 | 222 | 6.4 | 11.3 | 0.00 | 0.00 | 0.00 | 53 | 1010.1 |
| 20260505172853 | 20 | 204 | 12.9 | 17.7 | 0.00 | 0.00 | 0.00 | 53 | 1010.1 |
| 20260505172351 | 20 | 209 | 6.4 | 17.7 | 0.00 | 0.00 | 0.00 | 54 | 1010.2 |
| 20260505171850 | 20 | 246 | 11.3 | 16.1 | 0.00 | 0.00 | 0.00 | 52 | 1010.3 |
| 20260505171348 | 21 | 223 | 16.1 | 17.7 | 0.00 | 0.00 | 0.00 | 51 | 1010.3 |
| 20260505170844 | 22 | 230 | 4.8 | 14.5 | 0.00 | 0.00 | 0.00 | 50 | 1010.6 |
| 20260505170341 | 21 | 124 | 6.4 | 12.9 | 0.00 | 0.00 | 0.00 | 52 | 1010.6 |
| 20260505165836 | 21 | 173 | 6.4 | 17.7 | 0.00 | 0.00 | 0.00 | 51 | 1010.9 |
| 20260505165332 | 22 | 292 | 8.0 | 14.5 | 0.00 | 0.00 | 0.00 | 50 | 1010.7 |
| 20260505164828 | 22 | 245 | 6.4 | 17.7 | 0.00 | 0.00 | 0.00 | 51 | 1010.8 |
| 20260505164325 | 23 | 243 | 4.8 | 9.7 | 0.00 | 0.00 | 0.00 | 49 | 1010.9 |
| 20260505163823 | 22 | 163 | 1.6 | 6.4 | 0.00 | 0.00 | 0.00 | 54 | 1010.7 |
| 20260505163322 | 21 | 175 | 1.6 | 4.8 | 0.00 | 0.00 | 0.00 | 55 | 1010.8 |
| 20260505162819 | 21 | 142 | 0.0 | 1.6 | 0.00 | 0.00 | 0.00 | 55 | 1011.0 |
| 20260505162315 | 21 | 123 | 1.6 | 6.4 | 0.00 | 0.00 | 0.00 | 52 | 1011.1 |
| 20260505161813 | 21 | 128 | 0.0 | 4.8 | 0.00 | 0.00 | 0.00 | 55 | 1011.4 |
| 20260505161310 | 22 | 157 | 1.6 | 9.7 | 0.00 | 0.00 | 0.00 | 50 | 1011.5 |
| 20260505160807 | 23 | 124 | 3.2 | 3.2 | 0.00 | 0.00 | 0.00 | 48 | 1011.7 |
| 20260505160305 | 23 | 225 | 6.4 | 9.7 | 0.00 | 0.00 | 0.00 | 47 | 1011.7 |
| 20260505153244 | 22 | 162 | 1.6 | 9.7 | 0.00 | 0.00 | 0.00 | 50 | 1011.9 |
| 20260505152741 | 22 | 195 | 6.4 | 11.3 | 0.00 | 0.00 | 0.00 | 49 | 1011.9 |
| 20260505152238 | 22 | 199 | 4.8 | 11.3 | 0.00 | 0.00 | 0.00 | 49 | 1011.9 |
| 20260505151737 | 21 | 117 | 0.0 | 3.2 | 0.00 | 0.00 | 0.00 | 53 | 1012.0 |
| 20260505151235 | 20 | 154 | 1.6 | 9.7 | 0.00 | 0.00 | 0.00 | 55 | 1012.0 |
| 20260505150732 | 20 | 132 | 1.6 | 4.8 | 0.00 | 0.00 | 0.00 | 58 | 1012.1 |
| 20260505150230 | 19 | 150 | 0.0 | 3.2 | 0.00 | 0.00 | 0.00 | 60 | 1012.3 |
| 20260505140200 | 20 | 162 | 3.2 | 4.8 | 0.00 | 0.00 | 0.00 | 55 | 1011.8 |
| 20260505130123 | 17 | 215 | 3.2 | 9.7 | 0.00 | 0.00 | 0.00 | 58 | 1012.4 |
| 20260505124613 | 16 | 123 | 1.6 | 9.7 | 0.00 | 0.00 | 0.00 | 60 | 1011.9 |
| 20260505124109 | 16 | 249 | 8.0 | 11.3 | 0.00 | 0.00 | 0.00 | 61 | 1011.9 |
| 20260505123605 | 16 | 223 | 4.8 | 6.4 | 0.00 | 0.00 | 0.00 | 61 | 1012.1 |
| 20260505123102 | 16 | 213 | 4.8 | 6.4 | 0.00 | 0.00 | 0.00 | 62 | 1012.1 |
| 20260505122559 | 16 | 153 | 1.6 | 9.7 | 0.00 | 0.00 | 0.00 | 62 | 1012.0 |
| 20260505122056 | 15 | 239 | 3.2 | 4.8 | 0.00 | 0.00 | 0.00 | 62 | 1012.1 |
| 20260505121552 | 15 | 139 | 0.0 | 1.6 | 0.00 | 0.00 | 0.00 | 66 | 1012.1 |
| 20260505121049 | 15 | 152 | 0.0 | 3.2 | 0.00 | 0.00 | 0.00 | 68 | 1012.2 |
| 20260505120546 | 15 | 123 | 0.0 | 1.6 | 0.00 | 0.00 | 0.00 | 68 | 1012.0 |
| 20260505120041 | 15 | 123 | 0.0 | 1.6 | 0.00 | 0.00 | 0.00 | 67 | 1012.2 |
| 20260505115536 | 15 | 125 | 0.0 | 0.0 | 0.00 | 0.00 | 0.00 | 68 | 1012.3 |
| 20260505115034 | 14 | 261 | 0.0 | 3.2 | 0.00 | 0.00 | 0.00 | 69 | 1012.4 |
| 20260505114531 | 14 | 215 | 4.8 | 6.4 | 0.00 | 0.00 | 0.00 | 67 | 1012.6 |
| 20260505114027 | 13 | 245 | 4.8 | 4.8 | 0.00 | 0.00 | 0.00 | 68 | 1012.4 |
| 20260505113523 | 13 | 206 | 3.2 | 6.4 | 0.00 | 0.00 | 0.00 | 70 | 1012.6 |
| 20260505113020 | 12 | 203 | 3.2 | 3.2 | 0.00 | 0.00 | 0.00 | 71 | 1012.6 |
| 20260505112516 | 12 | 235 | 3.2 | 4.8 | 0.00 | 0.00 | 0.00 | 72 | 1012.6 |
| 20260505112015 | 12 | 226 | 3.2 | 4.8 | 0.00 | 0.00 | 0.00 | 72 | 1012.6 |
| 20260505111514 | 12 | 207 | 3.2 | 6.4 | 0.00 | 0.00 | 0.00 | 73 | 1012.6 |
| 20260505111010 | 12 | 169 | 1.6 | 3.2 | 0.00 | 0.00 | 0.00 | 74 | 1012.6 |
| 20260505110507 | 12 | 217 | 3.2 | 6.4 | 0.00 | 0.00 | 0.00 | 74 | 1012.4 |
| 20260505101939 | 10 | 238 | 3.2 | 3.2 | 0.00 | 0.00 | 0.00 | 79 | 1012.7 |
| 20260505101438 | 10 | 174 | 1.6 | 3.2 | 0.00 | 0.00 | 0.00 | 79 | 1012.7 |
| 20260505100934 | 10 | 182 | 1.6 | 1.6 | 0.00 | 0.00 | 0.00 | 79 | 1012.5 |
| 20260505100431 | 10 | 221 | 3.2 | 4.8 | 0.00 | 0.00 | 0.00 | 78 | 1012.5 |
| 20260505095927 | 10 | 171 | 0.0 | 3.2 | 0.00 | 0.00 | 0.00 | 78 | 1012.5 |
| 20260505095424 | 10 | 237 | 4.8 | 6.4 | 0.00 | 0.00 | 0.00 | 77 | 1012.3 |
| 20260505094920 | 10 | 195 | 1.6 | 4.8 | 0.00 | 0.00 | 0.00 | 77 | 1012.4 |
| 20260505094417 | 10 | 250 | 4.8 | 4.8 | 0.00 | 0.00 | 0.00 | 76 | 1012.6 |
| 20260505093913 | 10 | 198 | 3.2 | 3.2 | 0.00 | 0.00 | 0.00 | 76 | 1012.4 |
| 20260505093410 | 10 | 184 | 1.6 | 1.6 | 0.00 | 0.00 | 0.00 | 75 | 1012.5 |
| 20260505092908 | 11 | 184 | 0.0 | 1.6 | 0.00 | 0.00 | 0.00 | 74 | 1012.4 |
| 20260505092405 | 11 | 186 | 0.0 | 4.8 | 0.00 | 0.00 | 0.00 | 73 | 1012.5 |
| 20260505091902 | 11 | 212 | 3.2 | 3.2 | 0.00 | 0.00 | 0.00 | 73 | 1012.5 |
| 20260505091400 | 11 | 244 | 4.8 | 4.8 | 0.00 | 0.00 | 0.00 | 72 | 1012.6 |
| 20260505090858 | 11 | 210 | 3.2 | 6.4 | 0.00 | 0.00 | 0.00 | 72 | 1012.5 |
| 20260505090356 | 11 | 234 | 3.2 | 4.8 | 0.00 | 0.00 | 0.00 | 71 | 1012.6 |
| 20260505085853 | 11 | 230 | 3.2 | 4.8 | 0.00 | 0.00 | 0.00 | 71 | 1012.5 |
| 20260505085351 | 11 | 201 | 1.6 | 4.8 | 0.00 | 0.00 | 0.00 | 70 | 1012.6 |
| 20260505084849 | 11 | 178 | 1.6 | 3.2 | 0.00 | 0.00 | 0.00 | 70 | 1012.7 |
| 20260505084347 | 11 | 170 | 1.6 | 6.4 | 0.00 | 0.00 | 0.00 | 70 | 1012.8 |
| 20260505083844 | 11 | 179 | 3.2 | 6.4 | 0.00 | 0.00 | 0.00 | 72 | 1012.6 |
| 20260505083341 | 10 | 190 | 1.6 | 6.4 | 0.00 | 0.00 | 0.00 | 75 | 1012.7 |
| 20260505082837 | 10 | 195 | 0.0 | 0.0 | 0.00 | 0.00 | 0.00 | 75 | 1012.8 |
| 20260505082334 | 10 | 195 | 0.0 | 0.0 | 0.00 | 0.00 | 0.00 | 74 | 1012.7 |
| 20260505081830 | 10 | 195 | 0.0 | 0.0 | 0.00 | 0.00 | 0.00 | 74 | 1012.8 |
| 20260505081327 | 10 | 195 | 0.0 | 0.0 | 0.00 | 0.00 | 0.00 | 73 | 1012.8 |